Meteo Giornale » Osservazioni meteo Francia » Dole Tavaux

ore: 03:30 - Osservazioni Meteo Dole Tavaux
Lat. 47° 2' N Lon. 5° 26' E Alt. 196 metri s.l.m.

coperto_pioggia Europe/Paris

14 °C

Pioggia Debole

Temp. 24 Ore

11 °C

24 °C

Sud-Ovest

14.8 Km/h

Dew point 13 °C

Umidità 93 %

Visibilità  10 Km

Il sole sorge alle ore 07:20

Il sole tramonta alle ore 19:43

Data e Ora Cielo e Fenomeni T °C DP °C Um. % Pres. hPa Vis. km Vento km/h
Oggi h: 03:30 coperto_pioggia Pioggia Debole 14 13 93 1013 10 SO 14.8
Oggi h: 03:00 coperto_pioggia Pioggia Debole 15 14 93 1013 10 SO 18.5
Oggi h: 02:30 coperto_pioggia Pioggia 15 14 93 1013 8 SO 27.8
Oggi h: 02:00 sereno Sereno 16 14 87 1012 10 O/SO 16.7
Oggi h: 01:30 coperto Coperto 17 15 88 1012 10 O/SO 14.8
Oggi h: 01:00 sereno Sereno 15 14 93 1011 10 N 0
Oggi h: 00:30 sereno Sereno 15 14 93 1011 10 N 5.5
Oggi h: 00:00 sereno Sereno 15 14 93 1011 10 N 3.7
Ieri h: 23:30 sereno Sereno 16 14 87 1011 10 N 3.7
Ieri h: 23:00 sereno Sereno 16 14 87 1011 10 N 3.7
Ieri h: 22:30 sereno Sereno 16 14 87 1012 10 N 1.8
Ieri h: 22:00 sereno Sereno 17 15 88 1012 10 N 3.7
Ieri h: 21:30 sereno Sereno 17 15 88 1012 10 N 5.5
Ieri h: 21:00 sereno Sereno 18 15 82 1012 10 E/NE 7.4
Ieri h: 20:00 sereno Sereno 20 15 72 1012 10 N/NE 9.3
Ieri h: 19:30 sereno Sereno 21 15 68 1012 10 N/NE 7.4
Ieri h: 19:00 sereno Sereno 22 14 60 1012 10 N 3.7
Ieri h: 18:30 sereno Sereno 23 13 53 1013 10 N 3.7
Ieri h: 18:00 sereno Sereno 23 14 56 1013 10 N/NO 9.3
Ieri h: 17:30 sereno Sereno 23 13 53 1013 10 N 9.3
Ieri h: 17:00 sereno Sereno 23 13 53 1013 10 N/NO 11.1
Ieri h: 16:30 sereno Sereno 24 12 47 1013 10 N 5.5
Ieri h: 16:00 sereno Sereno 24 13 50 1013 10 N 5.5
Ieri h: 15:30 sereno Sereno 23 12 49 1014 10 N 5.5
Ieri h: 14:30 sereno Sereno 23 13 53 1014 10 N/NO 7.4
Ieri h: 13:30 sereno Sereno 22 13 56 1014 10 N 3.7
Ieri h: 12:30 sereno Sereno 21 15 68 1015 10 N 1.8
Ieri h: 11:30 sereno Sereno 19 14 72 1015 10 N 3.7
Ieri h: 11:00 sereno Sereno 18 14 77 1015 10 N 3.7
Ieri h: 10:30 sereno Sereno 17 14 82 1015 10 N 3.7
Ieri h: 09:30 sereno Sereno 15 13 87 1015 10 N 3.7
Ieri h: 09:00 sereno Sereno 14 13 93 1015 10 N 1.8
Ieri h: 08:30 sereno Sereno 12 12 100 1015 10 N 1.8
Ieri h: 08:00 nebbia Banco di Nebbia 11 11 100 1015 0.55 N 0
Ieri h: 07:30 nebbia Banco di Nebbia 11 10 93 1015 0.7 N 3.7
Ieri h: 07:00 sereno Sereno 11 11 100 1014 1 N 3.7
Ieri h: 06:30 sereno Sereno 12 11 93 1014 10 N 7.4
Ieri h: 06:00 sereno Sereno 12 11 93 1014 2 N 1.8
Ieri h: 05:30 sereno Sereno 11 11 100 1014 2 N 1.8
Ieri h: 05:00 sereno Sereno 11 10 93 1014 1 N 3.7